Location: Boiro
(42.6475°N, 8.8834°W)
Time: 20:42:51
(UTC+02:00)

UKube-1 - Pass Details

Date: 25 April 2024
Orbit: 584 x 591 km, 98.3° (Epoch: 19 May)

Event Time Altitude Azimuth Distance (km) Brightness Sun altitude
Rises 02:32:58 0° 30° (NNE) 2,835 ? -34.1°
Reaches altitude 10° 02:35:47 10° 51° (NE) 1,926 ? -34.1°
Enters shadow 02:35:52 10° 52° (NE) 1,906 ? -34.1°
